Home > Weather > Richmond > Past weeks

Flag for Canada Past Weather in Richmond, British Columbia, Canada — Yesterday and Last 2 Weeks

Now
55 °F

Passing clouds.


Feels Like: 53 °F
Forecast: 55 / 69 °F
Wind: 8 mph from East

Location: Vancouver International Airport

Current Time: Jun 30, 2016 at 5:26:49 AM

Latest Report: Jun 30, 2016 at 5:00 AM


Visibility: 20 mi

Pressure: 30.17 "Hg

Humidity: 82%

Dew Point: 50 °F

Location of RichmondLocation

Past Weather in Richmond — Graph

°F

Richmond Temperature Yesterday

Maximum temperature yesterday: 75 °F (at 4:00 PM)
Minimum temperature yesterday: 57 °F (at 2:00 AM)
Average temperature yesterday: 64 °F

High & Low Weather Summary for the Past Weeks

 TemperatureHumidityPressure
High75 °F (Jun 27, 3:00 PM)100% (Jun 20, 1:00 AM)30.42 "Hg (Jun 20, 1:00 AM)
Low48 °F (Jun 15, 5:00 AM)52% (Jun 17, 3:00 PM)29.91 "Hg (Jun 15, 7:00 PM)
Average60 °F77%30.13 "Hg
* Reported Jun 15 4:00 AM — Jun 30 4:00 AM, Richmond, Weather by CustomWeather, © 2016

Note: Actual official high and low records may vary slightly from our data, if they occured in-between our weather recording intervals... More about our weather records

Advertising

Richmond Weather History for the Previous 24 Hours

Scroll right to see more
 ConditionsComfort  
Time TempWeatherWind HumidityBarometerVisibility
4:00 AM
Thu, Jun 30
55 °FPassing clouds.12 mph88%30.15 "Hg30 mi
3:00 AM55 °FClear.9 mph82%30.15 "Hg30 mi
2:00 AM55 °FClear.8 mph88%30.14 "Hg30 mi
1:00 AM57 °FPassing clouds.12 mph82%30.12 "Hg30 mi
12:00 AM57 °FPassing clouds.13 mph88%30.12 "Hg30 mi
11:00 PM
Wed, Jun 29
59 °FPassing clouds.14 mph77%30.11 "Hg30 mi
10:00 PM61 °FSunny.15 mph72%30.11 "Hg30 mi
9:00 PM63 °FSunny.15 mph73%30.09 "Hg30 mi
8:00 PM66 °FSunny.10 mph73%30.09 "Hg30 mi
7:00 PM70 °FSunny.12 mph60%30.09 "Hg30 mi
6:00 PM73 °FSunny.8 mph57%30.09 "Hg30 mi
5:00 PM73 °FSunny.12 mph57%30.10 "Hg30 mi
4:00 PM75 °FSunny.8 mph57%30.11 "Hg30 mi
3:00 PM73 °FSunny.9 mph61%30.12 "Hg30 mi
2:00 PM70 °FSunny.8 mph78%30.13 "Hg30 mi
1:00 PM66 °FSunny.13 mph78%30.15 "Hg30 mi
12:00 PM70 °FSunny.6 mph64%30.16 "Hg30 mi
11:00 AM66 °FSunny.8 mph73%30.17 "Hg30 mi
10:00 AM64 °FSunny.9 mph73%30.18 "Hg30 mi
9:00 AM63 °FSunny.9 mph77%30.18 "Hg30 mi
8:00 AM61 °FPassing clouds.5 mph83%30.17 "Hg30 mi
7:00 AM59 °FPassing clouds.9 mph88%30.16 "Hg20 mi
6:00 AM57 °FPassing clouds.7 mph94%30.16 "Hg20 mi
5:00 AM57 °FPassing clouds.9 mph88%30.15 "Hg20 mi
Weather by CustomWeather, © 2016

See weather overviewHow to use our weather pages